Location: Aalen
(48.8330°N, 10.1000°E)
Time: 05:34:46
(UTC+02:00)

Transit 2A - Pass Details

Date: 07 August 2021
Orbit: 594 x 964 km, 66.7° (Epoch: 21 September)

Event Time Altitude Azimuth Distance (km) Brightness Sun altitude
Rises 15:55:58 0° 314° (NW) 3,301 9.4 45.3°
Reaches altitude 10° 15:58:45 10° 301° (WNW) 2,431 9.0 44.9°
Maximum altitude 16:03:05 23° 250° (WSW) 1,758 9.4 44.3°
Drops below altitude 10° 16:07:41 10° 200° (SSW) 2,592 9.5 43.7°
Sets 16:10:46 0° 187° (S) 3,574 9.8 43.2°
